Theta_e
312 312 312 313 314 314 311 305 301 300 299 299 299 298 298 298 298 298 299 298 297 296 296 296 296 295 295 295 295 295 295 295 294 294 293 293 292 292 291 291 290 290
311 312 312 313 314 313 308 302 300 299 299 299 298 297 297 297 298 298 298 297 296 296 295 295 295 294 294 294 294 294 294 294 294 293 292 292 292 291 291 290 290 289
311 312 312 312 313 311 306 301 299 298 298 298 297 297 297 297 298 297 297 296 295 295 295 294 294 294 294 294 294 294 294 293 293 292 292 291 291 290 290 290 289 289
311 312 312 312 312 309 304 299 298 298 298 297 297 296 297 297 297 297 296 295 295 295 294 294 294 293 293 293 293 293 293 293 292 292 291 290 290 290 289 289 289 289
311 311 312 311 310 307 302 299 298 298 297 297 296 296 296 297 297 296 296 295 294 294 294 294 294 293 293 293 293 293 293 292 291 291 290 290 289 289 289 289 289 289
311 311 311 310 308 304 300 298 298 298 297 297 296 296 296 296 296 296 295 294 294 293 293 294 294 293 293 293 293 292 292 291 291 290 290 289 289 289 289 289 289 288
312 311 311 309 306 302 299 297 297 297 297 296 296 296 296 296 295 295 295 294 293 293 293 293 293 293 293 293 292 292 292 291 290 290 289 289 289 289 289 289 288 288
312 311 310 308 305 301 298 296 297 297 296 296 295 295 295 295 295 295 294 294 293 293 293 293 293 293 293 293 292 292 291 291 290 290 289 289 289 289 289 288 288 287
312 311 310 307 303 299 297 296 296 296 296 295 295 295 294 295 294 294 294 294 293 293 293 293 292 292 292 292 292 292 291 290 290 290 289 289 289 289 289 288 288 287
312 310 308 306 302 298 296 295 296 295 295 295 295 294 294 294 294 294 294 293 293 293 293 293 292 292 292 292 292 292 291 290 290 290 289 289 289 289 288 288 287 287
311 309 307 305 301 298 295 295 295 295 295 295 294 294 294 294 294 294 293 293 293 293 293 293 292 292 292 292 292 292 291 290 290 290 289 289 289 289 288 288 287 287
311 308 306 304 301 297 295 295 295 295 295 295 294 294 294 294 294 294 293 293 293 293 293 292 292 292 292 292 292 292 292 292 291 290 289 289 289 288 288 288 287 287
310 307 305 303 300 296 295 294 294 295 295 294 294 294 294 294 294 294 293 293 293 293 293 292 292 292 292 292 292 292 293 292 291 290 289 289 289 288 288 288 287 287
309 306 304 302 299 296 294 294 294 294 294 294 294 294 294 293 293 293 293 293 293 293 292 292 292 292 292 292 292 293 293 293 291 290 289 289 288 288 288 287 287 286
309 306 303 301 299 296 295 294 294 294 294 294 294 293 293 293 293 293 293 293 293 292 292 292 292 291 291 292 292 292 293 293 292 290 289 289 288 288 288 287 287 286
310 308 305 301 299 297 295 294 293 293 294 294 293 293 293 293 293 293 292 292 292 292 292 292 292 291 291 291 292 292 293 293 292 290 289 289 288 288 288 287 287 286
310 310 307 304 301 299 297 295 294 293 293 293 293 293 293 293 293 293 292 292 292 292 292 292 291 291 291 291 291 292 293 294 292 291 290 289 288 288 288 287 287 286
310 310 309 307 303 301 299 298 295 293 293 293 293 293 293 293 292 292 292 292 292 292 292 291 291 291 291 291 291 292 294 294 293 291 290 289 288 288 288 287 287 286
310 310 310 308 306 303 301 299 297 294 293 293 293 293 293 292 292 292 292 292 292 292 291 291 291 291 290 290 291 292 294 294 293 291 290 289 289 288 288 288 287 287
310 310 310 308 306 304 303 300 298 295 293 293 293 293 292 292 292 292 292 292 292 292 291 291 291 291 290 289 291 293 294 293 292 291 290 289 289 288 288 287 287 287
309 310 309 308 306 305 303 301 299 296 294 293 293 292 292 292 292 292 292 292 292 292 291 291 291 290 289 289 291 293 293 293 292 291 291 290 289 288 288 287 287 287
309 309 309 308 306 304 302 301 299 297 295 293 293 292 292 292 292 292 292 292 292 291 291 291 291 289 288 289 291 292 293 293 292 291 291 290 289 288 287 287 287 287
308 308 308 307 305 303 302 301 300 298 296 294 293 292 292 292 292 292 293 293 292 291 291 291 290 289 288 289 291 291 293 293 292 291 291 290 289 288 287 287 287 287
306 306 305 305 304 303 302 300 299 298 297 296 295 294 294 294 294 293 293 292 291 291 291 290 290 289 288 289 290 292 293 292 291 291 290 290 289 288 287 287 287 287
303 303 303 302 302 301 301 300 300 299 299 298 297 296 296 295 294 294 293 292 291 290 290 289 289 289 289 290 291 292 293 292 291 290 289 289 289 288 288 287 287 287
299 299 300 300 300 300 299 299 299 299 299 298 297 297 296 295 294 293 292 290 290 289 289 289 289 289 289 290 290 291 292 292 290 289 289 288 288 288 288 288 287 287
Wind_Speed
27 25 25 28 30 31 33 36 36 34 31 29 27 26 25 23 21 19 18 17 15 15 13 12 11 9 9 8 7 7 8 8 7 7 6 6 5 5 5 5 5 5
27 27 27 29 30 32 35 37 35 32 30 28 26 26 24 23 21 20 18 17 17 16 14 13 11 10 9 8 8 8 8 8 8 7 6 6 5 5 5 5 5 5
28 29 29 30 31 33 36 37 35 32 30 28 27 26 24 23 22 20 19 18 17 16 15 13 11 10 10 9 9 9 9 9 8 7 6 6 6 6 6 6 5 6
30 30 30 30 31 33 37 38 35 32 30 29 28 26 25 23 22 22 21 20 18 16 14 13 11 11 10 10 9 9 9 8 7 7 7 7 7 6 6 6 6 6
31 30 30 31 32 35 39 38 35 33 32 31 29 27 26 24 23 22 21 20 19 17 15 13 12 11 10 10 10 9 9 7 7 7 7 7 7 7 6 6 7 7
32 32 31 32 34 37 40 38 35 34 33 32 30 28 26 25 24 23 21 20 19 17 15 14 12 12 11 10 10 9 8 7 7 8 8 8 8 8 7 7 8 9
33 33 33 33 35 39 40 38 36 35 33 32 30 28 27 26 24 23 21 20 18 17 15 14 13 12 11 11 10 9 8 8 8 8 8 9 9 9 8 9 10 10
34 33 34 35 37 41 42 40 38 36 34 33 31 29 28 26 24 23 21 20 18 17 16 14 13 12 11 11 9 8 8 8 8 8 9 10 10 10 10 11 11 11
35 35 36 38 40 43 43 41 39 37 35 33 31 30 28 26 25 23 22 21 19 18 16 15 13 12 11 10 8 7 7 7 8 9 10 11 11 12 12 12 12 12
36 37 38 40 42 44 44 42 39 38 36 34 32 30 29 27 26 25 24 22 21 19 17 15 13 12 11 9 8 7 6 7 8 9 11 12 12 13 13 13 13 13
37 38 40 41 43 45 44 42 40 38 37 35 33 31 30 29 28 27 25 23 21 19 17 15 14 13 11 9 8 7 6 7 9 11 12 13 13 14 14 14 14 14
38 39 42 43 44 45 44 42 41 39 38 36 34 33 31 30 29 28 26 24 22 20 18 17 16 14 12 10 9 8 7 8 10 12 13 14 14 15 15 15 15 15
39 40 42 43 44 45 43 42 41 40 39 37 35 34 33 31 30 29 27 25 23 21 20 19 17 16 14 12 10 10 10 10 11 13 14 15 15 15 15 15 15 16
38 40 42 42 43 43 42 42 42 41 40 39 37 35 34 32 31 29 28 26 25 23 22 20 19 18 16 14 13 13 13 12 12 14 15 16 16 16 15 16 16 17
38 39 40 41 42 42 42 42 43 43 42 40 38 36 35 34 32 31 29 28 26 25 24 23 22 20 18 17 16 15 15 14 14 15 16 16 16 16 15 16 16 16
39 38 39 41 42 43 43 44 44 44 44 42 40 38 37 35 33 32 31 29 28 27 26 25 23 22 20 19 18 18 17 16 16 17 18 18 17 17 16 16 15 16
40 39 39 41 43 43 44 45 45 46 45 43 41 39 38 37 35 34 32 31 30 29 28 27 25 23 23 22 21 20 19 19 18 19 20 19 18 18 17 16 16 15
42 41 40 41 43 44 44 45 46 47 46 44 43 41 40 39 37 35 34 33 32 31 30 29 26 25 25 25 25 23 22 21 20 20 21 21 20 19 18 18 17 16
43 42 41 41 43 43 42 43 46 47 47 45 44 43 41 40 38 36 36 35 35 34 33 31 28 27 28 28 27 24 24 23 22 22 23 23 23 22 21 20 19 17
44 42 41 41 41 41 41 41 44 47 47 46 45 44 43 41 40 39 38 38 37 36 35 33 31 31 31 30 28 25 25 25 24 24 25 26 25 24 24 23 21 19
44 42 41 40 39 40 40 40 42 45 46 46 46 45 44 42 41 41 40 40 40 39 38 36 34 33 33 32 28 27 28 28 26 26 27 28 28 27 27 26 24 21
43 41 40 40 39 40 40 40 41 43 45 45 45 45 45 44 43 43 43 43 42 42 40 39 37 36 35 32 29 30 32 31 29 28 29 29 29 30 30 29 26 25
41 40 40 40 40 40 40 40 40 41 43 43 44 44 45 45 46 46 46 45 45 44 43 41 39 38 36 34 34 35 36 33 31 31 30 31 31 32 32 31 30 29
38 38 39 39 39 39 39 38 38 38 39 40 42 44 45 47 48 49 48 48 47 45 43 41 39 38 38 38 39 39 37 34 34 34 33 33 33 34 35 34 33 33
33 34 35 35 35 35 34 34 34 34 36 39 41 43 46 47 48 49 50 49 48 45 42 41 39 39 41 42 41 40 37 36 36 37 37 36 35 36 38 37 37 36
26 27 27 28 28 28 28 29 31 33 36 38 41 43 45 47 48 49 50 49 46 43 42 41 41 42 43 44 43 40 38 37 38 40 40 39 38 39 40 41 40 40
Wind_Direction
224 222 217 213 214 215 211 203 197 197 197 196 195 194 191 189 188 188 187 187 187 190 191 191 190 187 189 197 207 220 229 230 231 231 231 234 240 246 250 250 253 258
218 214 213 213 215 215 211 205 200 199 199 199 198 196 195 193 193 192 192 192 191 191 191 190 188 186 191 202 212 223 231 232 232 229 228 234 238 242 244 246 252 258
213 212 212 213 215 214 210 205 202 201 200 201 200 199 198 198 197 196 194 194 194 193 191 189 189 190 196 206 216 227 233 233 233 230 230 234 235 238 241 245 252 260
212 213 213 214 216 214 210 206 204 202 202 204 203 201 201 201 202 201 197 195 195 194 192 191 193 195 202 212 221 230 235 235 237 235 234 234 233 235 238 247 257 263
215 215 214 216 215 213 211 208 207 205 204 205 204 202 203 205 206 205 201 197 194 193 194 194 195 199 207 216 225 232 237 238 239 238 238 237 235 240 245 254 264 268
217 217 217 216 214 212 211 209 209 209 207 206 206 205 206 207 208 207 204 199 195 194 195 196 199 203 209 218 225 232 236 237 240 241 242 243 246 251 257 265 271 272
219 219 217 215 213 212 212 211 212 211 209 208 207 207 208 209 209 208 205 202 197 195 196 199 202 204 211 218 224 231 236 239 242 242 245 250 254 260 267 273 274 272
221 221 218 214 213 212 212 213 213 212 211 209 208 208 209 210 210 209 206 203 199 198 199 200 202 207 212 216 221 229 236 240 242 245 250 255 259 266 272 274 273 271
223 222 218 214 213 213 213 213 213 213 212 210 209 209 210 211 212 211 208 205 201 201 202 203 205 209 212 216 222 229 233 239 245 250 256 258 262 268 272 273 273 273
223 221 218 215 213 213 214 214 213 213 213 212 211 211 212 213 212 211 210 206 204 204 205 207 210 214 217 218 222 229 234 241 250 257 260 261 264 267 271 273 275 275
224 222 218 215 214 214 214 215 214 214 214 213 213 212 213 214 214 212 211 208 207 208 209 210 213 217 220 221 225 230 237 248 259 263 262 263 265 268 271 275 276 276
224 221 218 216 215 215 215 216 216 216 216 216 215 214 214 216 216 215 213 211 210 210 211 212 216 219 221 224 230 234 245 260 264 263 263 264 266 268 272 274 275 275
224 222 219 217 216 217 217 218 218 219 219 218 217 216 217 218 218 218 216 214 213 213 214 214 216 221 224 227 232 240 254 262 263 263 264 265 265 267 270 273 274 274
225 223 221 219 218 219 219 220 221 221 221 220 219 218 219 220 220 220 219 216 216 217 216 215 218 223 226 230 237 247 257 261 261 262 262 263 264 266 269 272 272 272
226 224 223 221 220 220 221 223 223 223 223 222 221 221 221 221 221 221 221 221 221 220 219 219 221 224 228 234 241 249 256 261 260 259 260 261 262 263 267 270 271 270
227 226 224 223 222 222 223 224 224 225 225 224 223 223 223 223 223 223 224 225 225 225 225 225 225 227 231 236 241 247 257 262 256 254 258 259 259 262 266 268 269 267
229 228 227 225 225 225 226 226 226 226 226 225 225 225 225 226 226 226 227 228 228 229 230 230 229 230 233 236 239 246 261 266 256 253 257 257 258 261 264 265 264 262
230 230 229 227 227 227 228 228 227 227 227 227 227 227 228 228 228 229 230 231 231 232 232 232 232 234 236 237 238 249 266 270 260 254 255 255 257 260 261 261 259 256
231 232 232 231 230 230 231 231 229 228 228 229 229 229 229 230 231 232 233 234 234 236 236 234 234 236 236 235 239 255 272 273 264 257 254 255 258 259 258 257 254 251
232 233 234 234 233 233 234 234 231 229 229 230 231 230 230 232 234 235 236 237 238 239 238 237 238 238 234 234 243 263 277 276 266 258 255 256 258 257 256 254 251 250
233 234 235 236 236 235 235 235 233 230 230 231 232 232 233 235 237 238 239 241 242 242 240 241 242 237 232 235 248 270 281 276 266 261 259 259 258 255 254 253 252 252
235 236 236 236 236 235 235 236 235 233 233 233 234 234 235 237 239 241 243 245 244 242 242 245 243 236 232 238 252 272 281 275 266 264 264 261 258 254 253 254 255 255
236 236 237 237 236 236 236 237 236 235 235 236 236 236 237 240 242 244 246 246 244 243 245 246 242 236 234 241 254 270 278 273 266 266 266 262 258 254 254 256 257 256
238 238 238 238 238 239 240 240 240 240 240 240 240 241 242 244 245 247 248 247 244 244 245 245 243 239 239 246 259 273 277 270 265 266 265 262 259 256 256 258 258 258
240 241 242 243 244 246 247 247 248 248 247 246 245 245 246 247 248 248 248 246 244 244 245 244 244 244 245 253 264 275 276 269 264 264 262 261 262 260 259 259 259 260
243 244 245 247 248 250 251 253 253 253 253 252 250 250 249 249 249 248 247 245 244 244 245 245 246 247 249 256 264 272 275 269 263 261 261 261 264 265 263 261 261 262